Home   Weather   Stanley   Past weeks

Flag for Falkland Islands Past Weather in Stanley, Falkland Islands — Yesterday and Last 2 Weeks

Now
45 °F

Scattered clouds.


Feels Like: 36 °F
Forecast: 40 / 43 °F
Wind: 22 mph from Southwest

Location: Mount Pleasant Airport

Current Time: Sep 27, 2016 at 4:04:25 PM

Latest Report: Sep 27, 2016 at 2:50 PM


Visibility: N/A

Pressure: 29.95 "Hg

Humidity: 57%

Dew Point: 30 °F

Location of StanleyLocation

Past Weather in Stanley — Graph

°F

Stanley Temperature Yesterday

Maximum temperature yesterday: 45 °F (at 2:50 PM)
Minimum temperature yesterday: 37 °F (at 12:50 AM)
Average temperature yesterday: 42 °F

High & Low Weather Summary for the Past Weeks

 TemperatureHumidityPressure
High57 °F (Sep 20, 2:50 PM)100% (Sep 13, 1:50 AM)30.27 "Hg (Sep 13, 1:50 AM)
Low27 °F (Sep 16, 5:50 AM)37% (Sep 23, 1:50 PM)29.45 "Hg (Sep 15, 5:50 AM)
Average42 °F78%29.96 "Hg
* Reported Sep 12 2:50 PM — Sep 27 2:50 PM, Stanley, Weather by CustomWeather, © 2016

Note: Actual official high and low records may vary slightly from our data, if they occured in-between our weather recording intervals... More about our weather records

Advertising

Stanley Weather History for the Previous 24 Hours

Scroll right to see more
 ConditionsComfort  
Time TempWeatherWind HumidityBarometerVisibility
2:50 PM
Tue, Sep 27
45 °FScattered clouds.22 mph57%29.95 "HgN/A
1:50 PM45 °FPassing clouds.24 mph61%29.92 "HgN/A
12:50 PM46 °FScattered clouds.25 mph57%29.92 "HgN/A
11:50 AM45 °FPassing clouds.24 mph57%29.89 "HgN/A
10:50 AM45 °FScattered clouds.28 mph57%29.86 "HgN/A
9:50 AM45 °FBroken clouds.26 mph66%29.86 "HgN/A
8:50 AM41 °FPartly sunny.23 mph81%29.80 "HgN/A
7:50 AM41 °FPartly sunny.18 mph87%29.77 "HgN/A
6:50 AM41 °FPartly cloudy.18 mph87%29.74 "HgN/A
5:50 AM41 °FPartly cloudy.17 mph93%29.71 "HgN/A
4:50 AM41 °FPartly cloudy.13 mph100%29.68 "Hg4 mi
3:50 AM41 °FPassing clouds.16 mph93%29.65 "HgN/A
2:50 AM41 °FDrizzle. Low clouds.20 mph93%29.62 "Hg4 mi
1:50 AM41 °FPartly cloudy.16 mph100%29.62 "HgN/A
12:50 AM43 °FPartly cloudy.17 mph87%29.62 "HgN/A
11:50 PM
Mon, Sep 26
43 °FPassing clouds.10 mph87%29.59 "HgN/A
10:50 PM43 °FPassing clouds.3 mph87%29.59 "HgN/A
9:50 PM43 °FPartly cloudy.10 mph87%29.62 "HgN/A
8:50 PM43 °FPartly cloudy.16 mph87%29.59 "HgN/A
7:50 PM43 °FBroken clouds.21 mph87%29.59 "HgN/A
6:50 PM43 °FPartly sunny.32 mph87%29.59 "HgN/A
5:50 PM43 °FPartly sunny.26 mph87%29.59 "HgN/A
4:50 PM45 °FPartly sunny.22 mph81%29.68 "HgN/A
Weather by CustomWeather, © 2016

See weather overviewHow to use our weather pages